CW5689 Weather Reports


Display with metric or nautical units.
time (UTC)temp
F
wind
direction
speed
MPH
gust
MPH
rain 1hr
in
rain 24hr
in
rain mn
in
humidity
%
barometer
mb
20260902203044 83 65 1.0 3.0 0.00 0.10 0.10 68 1011.0
20260902202521 83 66 2.0 3.0 0.00 0.10 0.10 69 1011.1
20260902202511 83 66 2.0 0.0 0.00 0.10 0.10 68 1010.2
20260902202018 83 0 0.0 3.0 0.00 0.10 0.10 69 1011.2
20260902202011 83 68 1.0 0.0 0.00 0.10 0.10 68 1010.3
20260902201539 83 0 1.0 3.0 0.00 0.10 0.10 69 1011.3
20260902201511 83 68 0.0 0.0 0.00 0.10 0.10 69 1010.5
20260902201018 83 68 1.0 3.0 0.00 0.10 0.10 69 1011.4
20260902201011 84 68 3.0 0.0 0.00 0.10 0.10 68 1010.5
20260902200519 83 68 2.0 3.0 0.00 0.10 0.10 65 1011.5
20260902200038 83 67 2.0 4.0 0.00 0.10 0.10 68 1011.6
20260902200011 84 67 2.0 0.0 0.00 0.10 0.10 67 1010.8
20260902195521 83 67 2.0 4.0 0.00 0.10 0.10 65 1011.6
20260902195511 84 67 2.0 0.0 0.00 0.10 0.10 65 1010.9
20260902195019 83 67 0.0 4.0 0.00 0.10 0.10 65 1011.7
20260902194543 84 0 1.0 4.0 0.00 0.10 0.10 65 1011.7
20260902194019 84 68 2.0 4.0 0.00 0.10 0.10 64 1011.7
20260902194010 84 68 3.0 0.0 0.00 0.10 0.10 64 1010.9
20260902193519 84 66 2.0 3.0 0.00 0.10 0.10 66 1011.8
20260902193511 84 66 3.0 0.0 0.00 0.10 0.10 66 1011.0
20260902193043 84 71 1.0 3.0 0.00 0.10 0.10 65 1011.7
20260902193011 85 71 2.0 0.0 0.00 0.10 0.10 65 1011.0
20260902192521 84 72 1.0 3.0 0.00 0.10 0.10 62 1011.8
20260902192019 85 72 0.0 2.0 0.00 0.10 0.10 63 1011.9
20260902191545 85 0 0.0 3.0 0.00 0.10 0.10 64 1011.8
20260902191511 86 72 0.0 0.0 0.00 0.10 0.10 63 1011.0
20260902191018 85 0 0.0 3.0 0.00 0.10 0.10 62 1011.7
20260902190520 85 0 0.0 3.0 0.00 0.10 0.10 60 1011.8
20260902190510 86 72 0.0 0.0 0.00 0.10 0.10 60 1011.0
20260902190041 86 72 2.0 3.0 0.00 0.10 0.10 61 1011.8
20260902190011 86 72 3.0 0.0 0.00 0.10 0.10 61 1011.0
20260902185519 86 71 1.0 4.0 0.00 0.10 0.10 60 1011.8
20260902185511 86 71 2.0 0.0 0.00 0.10 0.10 60 1011.0
20260902185020 86 71 2.0 4.0 0.00 0.10 0.10 62 1011.8
20260902185011 86 71 3.0 0.0 0.00 0.10 0.10 62 1011.0
20260902184541 86 66 1.0 4.0 0.00 0.10 0.10 65 1011.7
20260902184511 86 66 2.0 0.0 0.00 0.10 0.10 64 1011.0
20260902184021 85 66 0.0 3.0 0.00 0.10 0.10 63 1011.8
20260902184011 86 66 2.0 0.0 0.00 0.10 0.10 62 1011.0
20260902183525 85 70 1.0 3.0 0.00 0.10 0.10 63 1011.9
20260902183511 86 70 2.0 0.0 0.00 0.10 0.10 62 1011.1
20260902183047 85 70 2.0 4.0 0.00 0.10 0.10 62 1011.9
20260902183011 86 70 2.0 0.0 0.00 0.10 0.10 62 1011.1
20260902182520 85 70 3.0 4.0 0.00 0.10 0.10 63 1012.0
20260902182511 85 70 3.0 0.0 0.00 0.10 0.10 63 1011.2
20260902182019 85 70 2.0 4.0 0.00 0.10 0.10 62 1012.2
20260902182011 85 70 3.0 0.0 0.00 0.10 0.10 62 1011.3
20260902181549 84 69 2.0 4.0 0.00 0.10 0.10 64 1012.2
20260902181511 85 69 3.0 0.0 0.00 0.10 0.10 63 1011.4
20260902181023 84 71 2.0 4.0 0.00 0.10 0.10 67 1012.4
20260902181011 84 71 3.0 0.0 0.00 0.10 0.10 66 1011.5
20260902180522 83 75 2.0 4.0 0.00 0.10 0.10 68 1012.4
20260902180511 84 75 2.0 0.0 0.00 0.10 0.10 67 1011.6
20260902180011 84 85 4.0 0.0 0.00 0.10 0.10 68 1011.8
20260902175520 83 107 1.0 5.0 0.00 0.10 0.10 69 1012.8
20260902175511 83 107 3.0 0.0 0.00 0.10 0.10 68 1012.0
20260902175018 82 0 0.0 6.0 0.00 0.10 0.10 71 1012.8
20260902174540 82 184 1.0 6.0 0.00 0.10 0.10 73 1013.1
20260902174511 82 184 3.0 1.0 0.00 0.10 0.10 72 1012.2
20260902174023 81 193 1.0 6.0 0.00 0.10 0.10 71 1013.0
20260902174011 82 193 2.0 1.0 0.00 0.10 0.10 70 1012.3
20260902173518 81 0 2.0 6.0 0.00 0.10 0.10 73 1013.1
20260902173511 81 201 0.0 1.0 0.00 0.10 0.10 72 1012.4
20260902173042 81 0 1.0 5.0 0.00 0.10 0.10 72 1013.2
20260902173011 81 81 0.0 0.0 0.00 0.10 0.10 71 1012.4
20260902172519 80 0 0.0 0.0 0.00 0.10 0.10 73 1013.2
20260902172511 80 68 0.0 0.0 0.00 0.10 0.10 72 1012.4
20260902172024 80 0 0.0 3.0 0.00 0.10 0.10 74 1013.1
20260902172011 80 67 0.0 0.0 0.00 0.10 0.10 73 1012.3
20260902171549 79 0 0.0 3.0 0.00 0.10 0.10 75 1012.9
20260902171511 80 67 0.0 0.0 0.00 0.10 0.10 76 1012.2
20260902171020 79 66 1.0 4.0 0.00 0.10 0.10 75 1012.9
20260902171011 79 66 1.0 0.0 0.00 0.10 0.10 73 1012.1
20260902170521 79 66 2.0 4.0 0.00 0.10 0.10 74 1012.8
20260902170511 79 66 1.0 0.0 0.00 0.10 0.10 73 1012.1
20260902170044 79 65 2.0 4.0 0.00 0.10 0.10 73 1013.0
20260902170011 79 65 3.0 0.0 0.00 0.10 0.10 72 1012.2
20260902165521 79 0 0.0 3.0 0.00 0.10 0.10 74 1013.1
20260902165511 79 66 0.0 0.0 0.00 0.10 0.10 74 1012.4
20260902165020 79 0 1.0 4.0 0.00 0.10 0.10 73 1013.1
20260902165011 79 66 0.0 0.0 0.00 0.10 0.10 73 1012.4
20260902164543 79 66 2.0 4.0 0.00 0.10 0.10 72 1013.1
20260902164511 79 66 3.0 0.0 0.00 0.10 0.10 72 1012.4
20260902164019 79 64 2.0 4.0 0.00 0.10 0.10 72 1013.1
20260902164011 80 64 2.0 0.0 0.00 0.10 0.10 72 1012.3
20260902163520 80 63 1.0 4.0 0.00 0.10 0.10 70 1013.0
20260902163511 80 63 2.0 0.0 0.00 0.10 0.10 70 1012.2
20260902163037 80 62 2.0 4.0 0.00 0.10 0.10 69 1013.1
20260902163011 81 62 2.0 0.0 0.00 0.10 0.10 69 1012.3
20260902162518 80 0 0.0 0.0 0.00 0.10 0.10 69 1013.2
20260902162511 81 62 0.0 0.0 0.00 0.10 0.10 69 1012.4
20260902162026 80 0 0.0 3.0 0.00 0.10 0.10 70 1013.1
20260902161544 80 0 0.0 3.0 0.00 0.10 0.10 71 1013.0
20260902161021 80 60 1.0 3.0 0.00 0.10 0.10 73 1012.9
20260902160520 80 59 1.0 4.0 0.00 0.10 0.10 72 1012.9
20260902160511 80 59 2.0 0.0 0.00 0.10 0.10 71 1012.1
20260902160041 80 58 2.0 4.0 0.00 0.10 0.10 72 1012.8
20260902160011 80 58 2.0 0.0 0.00 0.10 0.10 71 1012.1
20260902155520 80 66 3.0 4.0 0.00 0.10 0.10 72 1012.9
20260902155511 80 66 3.0 0.0 0.00 0.10 0.10 71 1012.1
20260902155021 80 66 2.0 4.0 0.00 0.10 0.10 71 1012.9
20260902154540 80 66 2.0 3.0 0.00 0.10 0.10 71 1012.9
20260902154511 80 66 3.0 0.0 0.00 0.10 0.10 71 1012.2
20260902154018 80 65 1.0 4.0 0.00 0.10 0.10 72 1013.0
20260902154011 80 65 1.0 0.0 0.00 0.10 0.10 71 1012.2
20260902153518 79 65 2.0 4.0 0.00 0.10 0.10 75 1012.9
20260902153511 80 65 2.0 0.0 0.00 0.10 0.10 75 1012.2
20260902153041 79 0 0.0 1.0 0.00 0.10 0.10 75 1013.0
20260902152519 79 0 0.0 3.0 0.00 0.10 0.10 75 1012.8
20260902152511 79 64 0.0 0.0 0.00 0.10 0.10 75 1012.1
20260902152024 78 0 0.0 3.0 0.00 0.10 0.10 78 1012.9
20260902152011 79 66 0.0 0.0 0.00 0.10 0.10 77 1012.1
20260902151544 78 0 0.0 4.0 0.00 0.10 0.10 79 1012.8
20260902151025 77 0 0.0 4.0 0.00 0.10 0.10 79 1012.8
20260902151011 78 64 0.0 0.0 0.00 0.10 0.10 78 1012.0
20260902150523 77 64 2.0 4.0 0.00 0.10 0.10 80 1012.8
20260902150511 77 64 2.0 0.0 0.00 0.10 0.10 80 1012.0
20260902150042 76 0 0.0 0.0 0.00 0.10 0.10 79 1012.9
20260902150011 77 64 0.0 0.0 0.00 0.10 0.10 78 1012.1
20260902145524 76 0 0.0 0.0 0.00 0.10 0.10 81 1012.8
20260902145511 76 64 0.0 0.0 0.00 0.10 0.10 80 1012.1
20260902145018 75 0 0.0 0.0 0.00 0.10 0.10 83 1012.8
20260902145011 75 68 0.0 0.0 0.00 0.10 0.10 82 1012.1
20260902144554 74 0 0.0 2.0 0.00 0.10 0.10 81 1012.8
20260902144020 74 0 0.0 2.0 0.00 0.10 0.10 83 1012.8
20260902143518 73 0 0.0 1.0 0.00 0.10 0.10 86 1012.9
20260902143511 74 71 0.0 0.0 0.00 0.10 0.10 85 1012.2
20260902143042 73 0 0.0 3.0 0.00 0.10 0.10 85 1012.9
20260902143011 73 72 0.0 0.0 0.00 0.10 0.10 85 1012.1
20260902142520 72 0 0.0 4.0 0.00 0.10 0.10 88 1013.1
20260902142511 73 72 0.0 0.0 0.00 0.10 0.10 87 1012.4
20260902142018 72 0 0.0 4.0 0.00 0.10 0.10 88 1013.2
20260902142011 72 73 0.0 0.0 0.00 0.10 0.10 88 1012.5
20260902141541 71 74 0.0 6.0 0.00 0.10 0.10 90 1013.3
20260902141026 70 73 1.0 6.0 0.00 0.10 0.10 91 1013.3
20260902140519 69 78 2.0 6.0 0.00 0.10 0.10 91 1013.2
20260902140511 70 78 3.0 1.0 0.00 0.10 0.10 90 1012.4
20260902140039 69 68 0.0 6.0 0.00 0.10 0.10 92 1013.0
20260902140011 69 72 3.0 1.0 0.00 0.10 0.10 92 1012.3
20260902135518 68 64 2.0 5.0 0.00 0.10 0.10 92 1012.9
20260902135511 68 73 3.0 1.0 0.00 0.10 0.10 92 1012.2
20260902135018 68 71 1.0 5.0 0.00 0.10 0.10 92 1013.0
20260902135011 68 70 3.0 0.0 0.00 0.10 0.10 92 1012.3
20260902134541 67 71 2.0 5.0 0.00 0.10 0.10 94 1013.1
20260902134511 68 71 4.0 0.0 0.00 0.10 0.10 93 1012.3
20260902134019 67 70 1.0 4.0 0.00 0.10 0.10 93 1013.2
20260902133521 66 69 0.0 3.0 0.00 0.10 0.10 93 1013.2
20260902133511 67 69 1.0 0.0 0.00 0.10 0.10 92 1012.4
20260902133040 66 0 0.0 5.0 0.00 0.10 0.10 92 1013.0
20260902133011 66 69 0.0 0.0 0.00 0.10 0.10 92 1012.2
20260902132519 66 69 2.0 5.0 0.00 0.10 0.10 92 1012.7
20260902132511 66 69 1.0 0.0 0.00 0.10 0.10 92 1012.0
20260902132018 66 68 2.0 4.0 0.00 0.10 0.10 93 1012.8
20260902132011 66 68 1.0 0.0 0.00 0.10 0.10 92 1012.0
20260902131543 66 0 0.0 6.0 0.00 0.10 0.10 93 1012.9
20260902131511 66 72 0.0 0.0 0.00 0.10 0.10 92 1012.1
20260902131019 66 72 1.0 6.0 0.00 0.10 0.10 93 1012.9
20260902130520 65 73 2.0 6.0 0.00 0.10 0.10 93 1013.0
20260902130511 66 73 2.0 1.0 0.00 0.10 0.10 92 1012.2
20260902130042 65 74 1.0 6.0 0.00 0.10 0.10 93 1013.1
20260902130011 66 74 3.0 1.0 0.00 0.10 0.10 92 1012.3
20260902125518 65 74 2.0 6.0 0.00 0.10 0.10 92 1012.9
20260902125511 66 74 2.0 1.0 0.00 0.10 0.10 92 1012.2
20260902125019 65 68 3.0 7.0 0.00 0.10 0.10 93 1012.9
20260902125011 66 68 2.0 1.0 0.00 0.10 0.10 92 1012.1
20260902124542 65 74 3.0 7.0 0.00 0.10 0.10 93 1013.0
20260902124511 66 73 2.0 1.0 0.00 0.10 0.10 92 1012.2
20260902124019 65 70 3.0 7.0 0.00 0.10 0.10 93 1013.1
20260902124011 66 68 4.0 1.0 0.00 0.10 0.10 93 1012.3
20260902123518 65 68 3.0 6.0 0.00 0.10 0.10 93 1013.0
20260902123512 65 68 3.0 1.0 0.00 0.10 0.10 92 1012.2
20260902123040 65 0 0.0 0.0 0.00 0.10 0.10 93 1013.1
20260902123011 65 169 0.0 0.0 0.00 0.10 0.10 92 1012.4
20260902122518 65 0 0.0 0.0 0.00 0.10 0.10 92 1013.2
20260902122511 65 170 0.0 0.0 0.00 0.10 0.10 92 1012.5
20260902122019 65 0 0.0 0.0 0.00 0.10 0.10 92 1013.2
20260902121539 65 0 0.0 0.0 0.00 0.10 0.10 92 1013.3
20260902121026 65 0 0.0 0.0 0.00 0.10 0.10 92 1013.3
20260902121010 65 220 0.0 0.0 0.00 0.10 0.10 92 1012.5
20260902120518 65 0 0.0 0.0 0.00 0.10 0.10 93 1013.2
20260902120045 65 0 0.0 0.0 0.00 0.10 0.10 93 1013.3
20260902120010 65 219 0.0 0.0 0.00 0.10 0.10 92 1012.5
20260902115518 65 0 0.0 0.0 0.00 0.10 0.10 93 1013.3
20260902115510 65 219 0.0 0.0 0.00 0.10 0.10 92 1012.5
20260902115018 65 0 0.0 1.0 0.00 0.10 0.10 93 1013.4
20260902115010 65 219 0.0 0.0 0.00 0.10 0.10 92 1012.7
20260902114545 65 0 0.0 1.0 0.00 0.10 0.10 93 1013.6
20260902114510 65 219 0.0 0.0 0.00 0.10 0.10 92 1012.9
20260902114021 64 0 0.0 0.0 0.00 0.10 0.10 92 1013.7
20260902114010 65 219 0.0 0.0 0.00 0.10 0.10 92 1012.9
20260902113519 64 0 0.0 0.0 0.00 0.10 0.10 92 1013.8
20260902113510 65 219 0.0 0.0 0.00 0.10 0.10 92 1013.0
20260902113049 64 0 0.0 2.0 0.00 0.10 0.10 92 1013.9
20260902113010 65 219 0.0 0.0 0.00 0.10 0.10 91 1013.1
20260902112518 64 0 0.0 2.0 0.00 0.10 0.10 92 1014.1
20260902112510 65 219 0.0 0.0 0.00 0.10 0.10 92 1013.3
20260902112018 64 0 0.0 4.0 0.00 0.10 0.10 92 1014.1
20260902112010 65 219 0.0 0.0 0.00 0.10 0.10 91 1013.4
20260902111545 64 219 0.0 5.0 0.00 0.10 0.10 92 1014.2
20260902111018 64 207 2.0 5.0 0.00 0.10 0.10 92 1014.1
20260902111010 65 207 2.0 0.0 0.00 0.10 0.10 91 1013.4
20260902110520 64 236 2.0 4.0 0.00 0.10 0.10 92 1014.0
20260902110510 65 236 2.0 0.0 0.00 0.10 0.10 91 1013.3
20260902110040 64 0 0.0 4.0 0.00 0.10 0.10 92 1014.0
20260902105518 65 249 1.0 6.0 0.00 0.10 0.10 92 1013.8
20260902105510 65 249 2.0 1.0 0.00 0.10 0.10 91 1013.1
20260902105018 65 231 1.0 6.0 0.00 0.10 0.10 92 1013.7
20260902105010 65 231 2.0 1.0 0.00 0.10 0.10 91 1012.9
20260902104541 65 230 0.0 3.0 0.00 0.10 0.10 92 1013.6
20260902104510 65 230 1.0 0.0 0.00 0.10 0.10 91 1012.8
20260902104019 65 230 1.0 4.0 0.00 0.10 0.10 92 1013.6
20260902104010 65 230 1.0 0.0 0.00 0.10 0.10 91 1012.8
20260902103522 65 0 0.0 4.0 0.00 0.10 0.10 92 1013.3
20260902103510 65 230 0.0 0.0 0.00 0.10 0.10 91 1012.5
20260902103037 65 230 1.0 7.0 0.00 0.10 0.10 92 1013.1
20260902103010 65 230 3.0 1.0 0.00 0.10 0.10 91 1012.4
20260902102520 65 228 2.0 7.0 0.00 0.10 0.10 92 1013.3
20260902102510 65 228 2.0 1.0 0.00 0.10 0.10 91 1012.7
20260902102018 65 242 1.0 7.0 0.00 0.10 0.10 92 1013.1
20260902102010 65 242 2.0 1.0 0.00 0.10 0.10 91 1012.4
20260902101539 65 256 2.0 4.0 0.00 0.10 0.10 91 1013.0
20260902101510 65 256 3.0 0.0 0.00 0.10 0.10 91 1012.3
20260902101018 65 259 2.0 3.0 0.00 0.10 0.10 91 1012.8
20260902100519 65 259 0.0 7.0 0.00 0.10 0.10 91 1012.5
20260902100510 66 259 2.0 1.0 0.00 0.10 0.10 91 1011.8
20260902100042 65 0 1.0 7.0 0.00 0.10 0.10 91 1012.4
20260902100010 66 259 0.0 1.0 0.00 0.10 0.10 90 1011.7
20260902095518 65 235 1.0 5.0 0.00 0.10 0.10 91 1012.5
20260902095019 65 202 2.0 5.0 0.00 0.10 0.10 91 1012.5
20260902095011 66 202 2.0 0.0 0.00 0.10 0.10 90 1011.8
20260902094541 66 180 2.0 5.0 0.00 0.10 0.10 91 1012.4
20260902094018 66 186 3.0 5.0 0.00 0.10 0.10 91 1012.4
20260902093517 66 156 2.0 4.0 0.00 0.10 0.10 91 1012.2
20260902093510 66 156 3.0 0.0 0.00 0.10 0.10 91 1011.3
20260902093041 66 64 1.0 7.0 0.00 0.10 0.10 91 1011.5
20260902092522 66 85 1.0 7.0 0.00 0.10 0.10 91 1011.7
20260902092510 66 85 1.0 1.0 0.00 0.10 0.10 90 1011.0
20260902092023 66 62 2.0 7.0 0.00 0.10 0.10 91 1011.4
20260902091548 66 66 2.0 7.0 0.01 0.10 0.10 91 1011.7
20260902091510 66 66 2.0 1.0 0.01 0.10 0.10 91 1010.9
20260902091019 66 70 2.0 6.0 0.01 0.10 0.10 91 1011.5
20260902090519 66 76 0.0 6.0 0.01 0.10 0.10 91 1011.7
20260902090510 67 76 0.0 1.0 0.01 0.10 0.10 91 1011.0
20260902090041 66 74 1.0 4.0 0.01 0.10 0.10 91 1011.7
20260902090010 67 74 1.0 0.0 0.01 0.10 0.10 90 1011.0
20260902085519 66 80 1.0 4.0 0.01 0.10 0.10 91 1012.2
20260902085510 67 80 0.0 0.0 0.01 0.10 0.10 91 1011.4
20260902085019 66 0 0.0 2.0 0.01 0.10 0.10 91 1012.3
20260902085010 67 141 0.0 0.0 0.01 0.10 0.10 91 1011.5
20260902084541 66 0 0.0 2.0 0.01 0.10 0.10 91 1012.4
20260902084021 67 0 0.0 2.0 0.01 0.10 0.10 91 1012.5
20260902084010 67 141 1.0 0.0 0.02 0.10 0.10 90 1011.7
20260902083519 67 0 0.0 1.0 0.02 0.10 0.10 91 1012.6
20260902083510 67 141 0.0 0.0 0.02 0.10 0.10 90 1012.0
20260902083040 67 0 0.0 2.0 0.03 0.10 0.10 91 1012.8
20260902083010 67 141 0.0 0.0 0.03 0.10 0.10 90 1012.1
20260902082522 67 0 0.0 2.0 0.04 0.10 0.10 90 1012.9
20260902082510 67 141 0.0 0.0 0.04 0.10 0.10 90 1012.2
20260902082022 67 0 0.0 3.0 0.05 0.10 0.10 90 1013.2
20260902082010 67 141 0.0 0.0 0.05 0.10 0.10 90 1012.5
20260902081542 67 141 0.0 3.0 0.05 0.09 0.09 90 1013.3
20260902081023 67 93 1.0 3.0 0.06 0.09 0.09 90 1013.2
20260902080522 67 0 0.0 4.0 0.06 0.09 0.09 91 1012.9
20260902080510 68 93 0.0 0.0 0.06 0.09 0.09 90 1012.2
20260902080047 67 93 1.0 4.0 0.07 0.09 0.09 90 1012.7
20260902080010 68 93 2.0 0.0 0.07 0.09 0.09 90 1011.9
20260902075523 67 93 3.0 6.0 0.07 0.09 0.09 90 1012.5
20260902075510 68 93 2.0 0.0 0.07 0.09 0.09 90 1011.8
20260902075020 68 89 2.0 6.0 0.08 0.09 0.09 90 1012.5
20260902075010 68 90 3.0 1.0 0.08 0.09 0.09 90 1011.6
20260902074541 68 82 3.0 6.0 0.08 0.09 0.09 91 1012.4
20260902074510 68 82 4.0 1.0 0.08 0.09 0.09 90 1011.7
20260902074020 68 214 0.0 5.0 0.07 0.08 0.08 90 1012.8
20260902074010 68 214 3.0 0.0 0.07 0.08 0.08 90 1012.0
20260902073519 68 0 0.0 5.0 0.08 0.08 0.08 90 1013.2
20260902073510 68 214 0.0 0.0 0.08 0.08 0.08 89 1012.5
20260902073038 68 0 1.0 6.0 0.07 0.07 0.07 90 1013.8
20260902073010 68 214 0.0 1.0 0.07 0.07 0.07 89 1013.1
20260902072518 68 184 1.0 8.0 0.06 0.06 0.06 90 1014.4
20260902072510 68 178 1.0 1.0 0.06 0.06 0.06 89 1013.7
20260902072021 68 150 3.0 15.0 0.05 0.05 0.05 89 1014.9
20260902071543 68 171 5.0 15.0 0.04 0.04 0.04 89 1015.3
20260902071511 69 158 7.0 2.0 0.04 0.04 0.04 89 1014.6
20260902071021 68 211 7.0 15.0 0.03 0.03 0.03 90 1015.5
20260902071010 69 171 5.0 2.0 0.03 0.03 0.03 89 1014.8
20260902070521 68 174 4.0 8.0 0.03 0.03 0.03 89 1015.6
20260902070044 68 210 3.0 6.0 0.02 0.02 0.02 89 1015.4
20260902070010 69 210 4.0 1.0 0.02 0.02 0.02 88 1014.6
20260902065519 69 235 1.0 5.0 0.02 0.02 0.02 89 1015.2
20260902065510 69 235 1.0 0.0 0.02 0.02 0.02 88 1014.5
20260902065021 69 0 0.0 0.0 0.01 0.01 0.01 88 1015.0
20260902065010 69 223 0.0 0.0 0.01 0.01 0.01 88 1014.2
20260902064551 69 0 0.0 0.0 0.01 0.01 0.01 88 1014.7
20260902064510 69 223 0.0 0.0 0.01 0.01 0.01 88 1013.9
20260902064019 69 0 0.0 0.0 0.01 0.01 0.01 88 1014.5
20260902063522 69 0 0.0 0.0 0.00 0.00 0.00 87 1014.2
20260902063510 69 222 0.0 0.0 0.00 0.00 0.00 87 1013.5
20260902063045 69 0 0.0 0.0 0.00 0.00 0.00 87 1013.6
20260902063010 69 222 0.0 0.0 0.00 0.00 0.00 86 1012.8
20260902062523 69 0 0.0 0.0 0.00 0.00 0.00 87 1013.4
20260902062510 69 222 0.0 0.0 0.00 0.00 0.00 86 1012.7
20260902062019 69 0 0.0 0.0 0.00 0.00 0.00 87 1013.5
20260902062010 70 222 0.0 0.0 0.00 0.00 0.00 86 1012.8
20260902061551 69 0 0.0 0.0 0.00 0.00 0.00 86 1013.3
20260902061510 70 222 0.0 0.0 0.00 0.00 0.00 85 1012.5
20260902061021 69 0 0.0 0.0 0.00 0.00 0.00 85 1013.0
20260902061011 70 222 0.0 0.0 0.00 0.00 0.00 85 1012.1
20260902060521 69 0 0.0 0.0 0.00 0.00 0.00 85 1012.7
20260902060511 70 222 0.0 0.0 0.00 0.00 0.00 84 1012.0
20260902060042 69 0 0.0 0.0 0.00 0.00 0.00 85 1012.5
20260902055521 69 0 0.0 0.0 0.00 0.00 0.00 84 1012.4
20260902055511 69 222 0.0 0.0 0.00 0.00 0.00 84 1011.7
20260902055020 69 0 0.0 2.0 0.00 0.00 0.00 84 1012.5
20260902055011 69 222 0.0 0.0 0.00 0.00 0.00 83 1011.9
20260902054541 69 0 0.0 4.0 0.00 0.00 0.00 84 1012.8
20260902054510 69 222 0.0 0.0 0.00 0.00 0.00 83 1012.0
20260902054019 69 0 1.0 4.0 0.00 0.00 0.00 84 1013.0
20260902054010 69 222 0.0 0.0 0.00 0.00 0.00 83 1012.3
20260902053520 69 221 2.0 4.0 0.00 0.00 0.00 84 1013.5
20260902053510 69 221 2.0 0.0 0.00 0.00 0.00 83 1012.7
20260902053039 69 0 0.0 0.0 0.00 0.00 0.00 84 1013.5
20260902053011 69 253 0.0 0.0 0.00 0.00 0.00 83 1012.8
20260902052522 69 0 0.0 0.0 0.00 0.00 0.00 84 1013.5
20260902052510 69 304 0.0 0.0 0.00 0.00 0.00 83 1012.8
20260902052017 69 0 0.0 0.0 0.00 0.00 0.00 84 1013.4
20260902052011 69 304 0.0 0.0 0.00 0.00 0.00 83 1012.6
20260902051546 69 0 0.0 0.0 0.00 0.00 0.00 83 1013.2
20260902051510 69 304 0.0 0.0 0.00 0.00 0.00 83 1012.5
20260902051023 69 0 0.0 0.0 0.00 0.00 0.00 83 1013.3
20260902051010 69 304 0.0 0.0 0.00 0.00 0.00 82 1012.6
20260902050521 69 0 0.0 0.0 0.00 0.00 0.00 82 1013.2
20260902050043 69 0 0.0 0.0 0.00 0.00 0.00 82 1012.9
20260902050010 69 304 0.0 0.0 0.00 0.00 0.00 82 1012.2
20260902045520 69 0 0.0 0.0 0.00 0.00 0.00 82 1012.8
20260902045511 69 304 0.0 0.0 0.00 0.00 0.00 81 1012.2
20260902045025 69 0 0.0 0.0 0.00 0.00 0.00 82 1012.6
20260902045011 69 304 0.0 0.0 0.00 0.00 0.00 81 1011.9
20260902044539 69 0 0.0 0.0 0.00 0.00 0.00 81 1012.6
20260902044510 69 304 0.0 0.0 0.00 0.00 0.00 81 1012.0
20260902044023 69 0 0.0 0.0 0.00 0.00 0.00 81 1012.8
20260902044010 69 304 0.0 0.0 0.00 0.00 0.00 81 1012.1
20260902043519 69 0 0.0 0.0 0.00 0.00 0.00 80 1012.7
20260902043510 69 304 0.0 0.0 0.00 0.00 0.00 80 1012.0
20260902043039 69 0 0.0 0.0 0.00 0.00 0.00 80 1012.7
20260902043010 70 304 0.0 0.0 0.00 0.00 0.00 80 1012.0
20260902042526 69 0 0.0 0.0 0.00 0.00 0.00 80 1012.7
20260902042510 70 304 0.0 0.0 0.00 0.00 0.00 79 1012.0
20260902042020 69 0 0.0 0.0 0.00 0.00 0.00 79 1012.7
20260902042011 70 304 0.0 0.0 0.00 0.00 0.00 79 1012.0
20260902041543 70 0 0.0 0.0 0.00 0.00 0.00 79 1012.6
20260902041511 70 304 0.0 0.0 0.00 0.00 0.00 79 1012.0
20260902041021 70 0 0.0 0.0 0.00 0.00 0.00 79 1012.6
20260902041011 70 304 0.0 0.0 0.00 0.00 0.00 78 1011.9
20260902040521 70 0 0.0 0.0 0.00 0.00 0.00 78 1012.4
20260902040511 70 304 0.0 0.0 0.00 0.00 0.00 78 1011.7
20260902040043 70 0 0.0 0.0 0.00 0.00 0.00 78 1012.5
20260902040010 70 304 0.0 0.0 0.00 0.00 0.00 78 1011.8
20260902035519 70 0 0.0 0.0 0.00 0.00 0.00 78 1012.7
20260902035510 71 304 0.0 0.0 0.00 0.00 0.00 77 1012.0
20260902035024 70 0 0.0 0.0 0.00 0.00 0.00 77 1012.9
20260902035010 71 304 0.0 0.0 0.00 0.00 0.00 77 1012.1
20260902034554 71 0 0.0 0.0 0.00 0.00 0.00 77 1013.0
20260902034510 71 304 0.0 0.0 0.00 0.00 0.00 76 1012.3
20260902034025 71 0 0.0 0.0 0.00 0.00 0.00 77 1013.2
20260902033521 71 0 0.0 0.0 0.00 0.00 0.00 76 1013.2
20260902033511 72 304 0.0 0.0 0.00 0.00 0.00 75 1012.5
20260902033053 71 0 0.0 0.0 0.00 0.00 0.00 76 1013.3
20260902033010 72 304 0.0 0.0 0.00 0.00 0.00 75 1012.5
20260902032520 71 0 0.0 0.0 0.00 0.00 0.00 75 1013.3
20260902032026 72 0 0.0 0.0 0.00 0.00 0.00 75 1013.3
20260902032010 72 304 0.0 0.0 0.00 0.00 0.00 74 1012.5
20260902031541 72 0 0.0 0.0 0.00 0.00 0.00 74 1013.2
20260902031510 72 304 0.0 0.0 0.00 0.00 0.00 74 1012.5
20260902031023 72 0 0.0 0.0 0.00 0.00 0.00 74 1013.1
20260902031010 72 304 0.0 0.0 0.00 0.00 0.00 74 1012.4
20260902030521 72 0 0.0 0.0 0.00 0.00 0.00 74 1013.0
20260902030511 73 304 0.0 0.0 0.00 0.00 0.00 73 1012.3
20260902030040 72 0 0.0 0.0 0.00 0.00 0.00 73 1013.2
20260902030011 73 304 0.0 0.0 0.00 0.00 0.00 73 1012.5
20260902025524 73 0 0.0 0.0 0.00 0.00 0.00 74 1013.2
20260902025510 73 304 0.0 0.0 0.00 0.00 0.00 73 1012.5
20260902025020 73 0 0.0 0.0 0.00 0.00 0.00 72 1013.1
20260902025010 74 304 0.0 0.0 0.00 0.00 0.00 72 1012.4
20260902024543 73 0 0.0 0.0 0.00 0.00 0.00 72 1013.1
20260902024510 74 304 0.0 0.0 0.00 0.00 0.00 71 1012.3
20260902024019 74 0 0.0 0.0 0.00 0.00 0.00 72 1013.0
20260902024010 74 304 0.0 0.0 0.00 0.00 0.00 71 1012.3
20260902023519 74 0 0.0 0.0 0.00 0.00 0.00 71 1013.1
20260902023510 75 304 0.0 0.0 0.00 0.00 0.00 71 1012.3
20260902023041 74 0 0.0 0.0 0.00 0.00 0.00 71 1013.0
20260902023011 75 304 0.0 0.0 0.00 0.00 0.00 70 1012.2
20260902022520 75 0 0.0 0.0 0.00 0.00 0.00 71 1013.1
20260902022510 75 304 0.0 0.0 0.00 0.00 0.00 70 1012.2
20260902022019 75 0 0.0 0.0 0.00 0.00 0.00 70 1013.1
20260902022010 76 304 0.0 0.0 0.00 0.00 0.00 69 1012.3
20260902021536 76 0 0.0 0.0 0.00 0.00 0.00 69 1013.1
20260902021511 76 304 0.0 0.0 0.00 0.00 0.00 69 1012.3
20260902021019 76 0 0.0 0.0 0.00 0.00 0.00 69 1013.0
20260902021011 76 304 0.0 0.0 0.00 0.00 0.00 68 1012.4
20260902020521 76 0 0.0 0.0 0.00 0.00 0.00 68 1012.9
20260902020041 77 0 0.0 0.0 0.00 0.00 0.00 68 1012.8
20260902015519 77 0 0.0 0.0 0.00 0.00 0.00 67 1012.9
20260902015510 77 304 0.0 0.0 0.00 0.00 0.00 67 1012.2
20260902015020 77 0 0.0 0.0 0.00 0.00 0.00 66 1012.9
20260902015011 78 304 0.0 0.0 0.00 0.00 0.00 66 1012.2
20260902014537 77 0 0.0 0.0 0.00 0.00 0.00 66 1012.9
20260902014511 78 304 0.0 0.0 0.00 0.00 0.00 65 1012.2
20260902014021 78 0 0.0 0.0 0.00 0.00 0.00 64 1012.8
20260902014010 78 304 0.0 0.0 0.00 0.00 0.00 64 1012.1
20260902013523 78 0 0.0 0.0 0.00 0.00 0.00 63 1012.8
20260902013510 78 304 0.0 0.0 0.00 0.00 0.00 63 1012.0
20260902013038 78 0 0.0 0.0 0.00 0.00 0.00 62 1012.6
20260902013010 79 304 0.0 0.0 0.00 0.00 0.00 62 1011.9
20260902012521 79 0 0.0 0.0 0.00 0.00 0.00 61 1012.5
20260902012022 79 0 0.0 0.0 0.00 0.00 0.00 60 1012.5
20260902012011 80 304 0.0 0.0 0.00 0.00 0.00 60 1011.8
20260902011537 79 0 0.0 0.0 0.00 0.00 0.00 59 1012.4
20260902011510 80 304 0.0 0.0 0.00 0.00 0.00 59 1011.8
20260902011021 80 0 0.0 0.0 0.00 0.00 0.00 59 1012.5
20260902010521 80 0 0.0 0.0 0.00 0.00 0.00 59 1012.5
20260902010510 81 304 0.0 0.0 0.00 0.00 0.00 58 1011.8
20260902010037 81 0 0.0 0.0 0.00 0.00 0.00 57 1012.4
20260902005522 81 0 0.0 0.0 0.00 0.00 0.00 56 1012.4
20260902005510 81 304 0.0 0.0 0.00 0.00 0.00 55 1011.7
20260902005021 81 0 0.0 0.0 0.00 0.00 0.00 56 1012.4
20260902005011 82 304 0.0 0.0 0.00 0.00 0.00 56 1011.7
20260902004538 81 0 0.0 0.0 0.00 0.00 0.00 55 1012.4
20260902004511 82 304 0.0 0.0 0.00 0.00 0.00 54 1011.6
20260902004019 82 0 0.0 0.0 0.00 0.00 0.00 55 1012.4
20260902003517 82 0 0.0 0.0 0.00 0.00 0.00 54 1012.5
20260902003510 82 304 0.0 0.0 0.00 0.00 0.00 53 1011.8
20260902003042 82 0 0.0 0.0 0.00 0.00 0.00 55 1012.5
20260902002521 82 0 0.0 0.0 0.00 0.00 0.00 54 1012.6
20260902002511 83 304 0.0 0.0 0.00 0.00 0.00 53 1011.9
20260902002023 83 0 0.0 0.0 0.00 0.00 0.00 53 1012.6
20260902002010 83 304 0.0 0.0 0.00 0.00 0.00 53 1011.8
20260902001542 83 0 0.0 0.0 0.00 0.00 0.00 53 1012.5
20260902001511 83 304 0.0 0.0 0.00 0.00 0.00 52 1011.8
20260902001019 83 0 0.0 0.0 0.00 0.00 0.00 54 1012.5
20260902001011 84 304 0.0 0.0 0.00 0.00 0.00 52 1011.8
20260902000521 83 0 0.0 0.0 0.00 0.00 0.00 53 1012.5
20260902000511 84 304 0.0 0.0 0.00 0.00 0.00 52 1011.8
20260902000041 84 0 0.0 0.0 0.00 0.00 0.00 52 1012.5
20260901235520 84 0 0.0 0.0 0.00 0.00 0.00 51 1012.4
20260901235511 84 304 0.0 0.0 0.00 0.00 0.00 51 1011.8
20260901235018 84 0 0.0 0.0 0.00 0.00 0.00 51 1012.3
20260901234552 84 0 0.0 0.0 0.00 0.00 0.00 51 1012.4
20260901234511 84 304 0.0 0.0 0.00 0.00 0.00 51 1011.8
20260901234018 84 0 0.0 0.0 0.00 0.00 0.00 50 1012.6
20260901234011 85 304 0.0 0.0 0.00 0.00 0.00 49 1012.0
20260901233518 84 0 0.0 0.0 0.00 0.00 0.00 50 1012.7
20260901233511 85 304 0.0 0.0 0.00 0.00 0.00 50 1012.0
20260901233044 85 0 0.0 0.0 0.00 0.00 0.00 51 1012.7
20260901233011 85 263 0.0 0.0 0.00 0.00 0.00 52 1012.0
20260901232525 85 0 0.0 2.0 0.00 0.00 0.00 52 1012.5
20260901232511 85 258 0.0 0.0 0.00 0.00 0.00 51 1011.9
20260901232024 85 0 0.0 3.0 0.00 0.00 0.00 50 1012.4
20260901231541 85 0 0.0 8.0 0.00 0.00 0.00 49 1012.4
20260901231511 85 258 0.0 1.0 0.00 0.00 0.00 48 1011.7
20260901231021 85 258 1.0 8.0 0.00 0.00 0.00 48 1012.3
20260901230519 85 232 2.0 7.0 0.00 0.00 0.00 48 1012.3
20260901230511 86 232 3.0 1.0 0.00 0.00 0.00 47 1011.6
20260901230041 85 240 2.0 7.0 0.00 0.00 0.00 47 1012.4
20260901230011 86 240 2.0 1.0 0.00 0.00 0.00 46 1011.6
20260901225519 86 219 2.0 7.0 0.00 0.00 0.00 49 1012.4
20260901225511 86 195 6.0 1.0 0.00 0.00 0.00 48 1011.7
20260901225023 86 240 3.0 7.0 0.00 0.00 0.00 47 1012.4
20260901225011 86 239 2.0 1.0 0.00 0.00 0.00 47 1011.7
20260901224544 86 252 1.0 8.0 0.00 0.00 0.00 50 1012.4
20260901224511 86 252 3.0 1.0 0.00 0.00 0.00 49 1011.6
20260901224018 86 257 2.0 8.0 0.00 0.00 0.00 50 1012.4
20260901224011 86 257 4.0 1.0 0.00 0.00 0.00 50 1011.7
20260901223518 86 205 2.0 7.0 0.00 0.00 0.00 48 1012.4
20260901223511 86 205 3.0 1.0 0.00 0.00 0.00 47 1011.7
20260901223037 86 0 1.0 6.0 0.00 0.00 0.00 46 1012.4
20260901223011 87 232 1.0 0.0 0.00 0.00 0.00 46 1011.7
20260901222524 86 276 2.0 7.0 0.00 0.00 0.00 48 1012.4
20260901222511 87 276 2.0 0.0 0.00 0.00 0.00 47 1011.7
20260901222021 86 0 2.0 7.0 0.00 0.00 0.00 46 1012.4
20260901221544 86 242 1.0 7.0 0.00 0.00 0.00 47 1012.3
20260901221511 87 240 4.0 1.0 0.00 0.00 0.00 47 1011.6
20260901221020 86 0 2.0 9.0 0.00 0.00 0.00 46 1012.1
20260901221011 87 204 0.0 1.0 0.00 0.00 0.00 46 1011.6
20260901220518 87 211 3.0 9.0 0.00 0.00 0.00 46 1012.0
20260901220511 87 207 3.0 1.0 0.00 0.00 0.00 46 1011.5
20260901220039 87 207 3.0 10.0 0.00 0.00 0.00 45 1012.2
20260901220011 87 207 2.0 1.0 0.00 0.00 0.00 45 1011.5
20260901215519 87 300 4.0 10.0 0.00 0.00 0.00 46 1012.2
20260901215511 87 251 7.0 1.0 0.00 0.00 0.00 46 1011.5
20260901215020 87 0 2.0 7.0 0.00 0.00 0.00 45 1012.1
20260901215011 87 204 0.0 1.0 0.00 0.00 0.00 44 1011.5
20260901214544 87 244 2.0 9.0 0.00 0.00 0.00 46 1012.1
20260901214511 87 244 2.0 1.0 0.00 0.00 0.00 46 1011.6
20260901214019 87 242 1.0 9.0 0.00 0.00 0.00 42 1012.1
20260901214011 87 242 1.0 1.0 0.00 0.00 0.00 42 1011.5
20260901213520 87 248 2.0 7.0 0.00 0.00 0.00 43 1012.0
20260901213045 87 193 2.0 7.0 0.00 0.00 0.00 43 1011.9
20260901213011 87 193 5.0 1.0 0.00 0.00 0.00 42 1011.3
20260901212521 87 193 2.0 7.0 0.00 0.00 0.00 42 1011.8
20260901212511 88 192 1.0 1.0 0.00 0.00 0.00 42 1011.2
20260901212019 87 238 2.0 8.0 0.00 0.00 0.00 44 1011.8
20260901211541 87 202 3.0 8.0 0.00 0.00 0.00 41 1011.8
20260901211511 88 222 2.0 1.0 0.00 0.00 0.00 40 1011.2
20260901211022 87 250 1.0 8.0 0.00 0.00 0.00 44 1011.9
20260901211011 88 250 2.0 1.0 0.00 0.00 0.00 43 1011.3
20260901210519 87 226 4.0 11.0 0.00 0.00 0.00 44 1011.9
20260901210511 88 209 2.0 1.0 0.00 0.00 0.00
20260901210039 88 219 3.0 11.0 0.00 0.00 0.00 42 1012.2
20260901205518 88 201 5.0 11.0 0.00 0.00 0.00 42 1012.2
20260901205019 88 342 2.0 13.0 0.00 0.00 0.00 45 1012.3
20260901204544 88 257 4.0 13.0 0.00 0.00 0.00 44 1012.4
20260901204024 88 262 3.0 13.0 0.00 0.00 0.00 42 1012.5
20260901203520 88 244 1.0 9.0 0.00 0.00 0.00 42 1012.5